Hourly Data Report for July 15, 2021

VICTORIA INTL A
BRITISH COLUMBIA
Current Station Operator: NAVCAN

48°38'50.000" N
123°25'33.000" W
19.50 m
1018621
71799
YYJ

Download Data

Hourly Data (July 2021)
Hourly Data Report for July 15, 2021
TIME
LST
Temp Definition
°C
Dew Point Definition
°C
Rel Hum Definition
%
Precip. Amount Definition
mm

Wind Dir Definition
10's deg

Wind Spd Definition
km/h
Visibility Definition
km
Stn Press Definition
kPa
Hmdx Definition


Wind Chill Definition


Weather Definition


00:00 12.7 12.3 98   5 4 32.2 101.18     LegendNANA
01:00 12.8 12.8 100   6 6 32.2 101.18     Clear
02:00 12.4 12.4 100   36 1 32.2 101.20     LegendNANA
03:00 12.8 12.8 100   8 4 32.2 101.23     LegendNANA
04:00 12.2 12.2 100   14 8 48.3 101.23     Clear
05:00 12.1 12.1 100   14 4 48.3 101.29     LegendNANA
06:00 14.1 12.2 88   36 2 48.3 101.34     LegendNANA
07:00 16.6 10.7 68   35 5 48.3 101.38     Clear
08:00 16.0 11.0 72   9 10 48.3 101.40     LegendNANA
09:00 16.6 10.7 68   12 12 48.3 101.41     LegendNANA
10:00 17.4 10.6 64   9 17 48.3 101.42     Clear
11:00 17.0 10.7 66   12 18 48.3 101.44     LegendNANA
12:00 16.6 10.4 67   11 17 48.3 101.42     LegendNANA
13:00 17.6 10.1 61   8 16 48.3 101.40     Clear
14:00 18.6 10.5 59   10 13 48.3 101.38     LegendNANA
15:00 19.4 10.1 54   9 16 48.3 101.35     LegendNANA
16:00 19.3 9.9 54   7 15 48.3 101.32     Clear
17:00 18.6 10.1 58   7 10 48.3 101.28     LegendNANA
18:00 17.7 10.1 61   8 16 48.3 101.25     LegendNANA
19:00 16.5 10.5 67   8 9 48.3 101.24     Clear
20:00 15.1 10.9 76   7 3 48.3 101.24     LegendNANA
21:00 14.3 11.1 80   2 4 48.3 101.26     LegendNANA
22:00 16.5 10.7 68   31 14 32.2 101.25     Clear
23:00 15.9 11.0 72   30 18 48.3 101.26     LegendNANA

Notes on Data Quality.

Legend

  • E = Estimated
  • M = Missing
  • NA = Not Available*
  • [empty] = Indicates an unobserved value
Date modified: